Theta_e
295 297 298 299 300 301 301 302 301 304 306 307 309 312 311 314 318 324 324 322 322 322 322 322 321 322 323 322 322 321 319 318 320 320 318 318 317 317 316 316 315 315 310
295 295 296 297 298 301 303 304 303 304 307 307 308 309 311 312 316 319 322 322 323 322 322 322 322 322 322 322 321 320 318 318 318 318 316 315 312 309 309 311 308 308 307
293 295 296 296 297 298 300 301 301 303 305 307 308 307 311 314 316 318 319 320 320 321 320 317 320 321 320 320 319 318 318 318 316 316 316 311 308 304 302 302 303 302 303
290 292 295 297 298 299 301 301 302 302 301 306 307 305 308 313 313 317 318 320 319 317 318 317 318 318 318 316 315 315 314 314 313 313 312 309 305 301 301 301 300 300 300
289 291 293 296 298 300 301 302 302 302 302 304 306 306 308 312 310 314 317 318 316 314 313 313 312 313 310 309 309 310 310 310 311 310 308 304 302 300 299 300 299 298 298
288 289 291 293 294 297 298 301 302 301 303 304 305 305 305 308 305 309 312 315 310 311 309 308 307 306 305 305 305 306 306 306 307 307 305 303 301 300 299 298 297 296 296
286 287 288 289 291 292 294 296 296 297 299 302 301 301 303 302 303 306 308 308 309 305 303 300 299 297 298 299 300 301 302 303 302 303 303 301 300 298 298 296 295 296 296
286 286 287 288 289 290 291 292 293 294 296 298 298 299 299 295 300 302 304 303 301 295 293 292 292 292 292 293 294 294 296 297 298 298 299 298 297 296 297 296 296 296 295
286 286 286 287 288 290 290 291 292 292 292 292 294 295 291 289 290 292 293 293 293 292 291 291 292 291 291 290 291 292 291 291 292 292 293 294 295 295 295 294 294 294 293
288 288 289 289 289 291 291 291 291 291 290 289 288 288 289 289 290 291 292 292 292 291 291 291 291 291 291 291 291 291 291 291 290 290 290 289 288 288 288 287 287 287 287
287 287 289 290 290 290 293 292 290 289 288 288 288 288 288 288 289 289 290 291 291 291 290 290 290 290 291 291 291 291 291 290 290 290 289 289 289 288 288 288 288 287 287
288 288 288 287 287 288 288 287 287 288 289 288 288 289 289 288 289 290 290 290 290 290 290 290 291 291 291 291 290 290 290 289 289 289 289 289 289 288 288 288 288 288 287
288 288 289 289 290 290 290 289 289 289 289 289 289 289 288 289 290 290 290 290 290 290 289 289 290 289 289 288 288 288 288 288 288 287 287 287 286 286 285 285 286 286 286
287 287 287 288 288 288 288 288 288 288 288 288 288 287 287 287 287 287 287 287 287 288 287 286 286 286 285 285 285 285 284 284 284 284 284 284 284 284 284 283 283 283 283
286 286 287 287 287 287 287 287 287 286 286 286 286 286 286 286 286 286 285 286 285 285 285 285 285 284 284 284 284 284 283 283 283 283 283 283 283 282 281 281 280 280 280
287 286 286 287 287 286 286 286 285 285 285 285 285 284 285 285 285 285 285 285 284 284 285 284 284 283 283 283 283 283 282 282 282 282 281 280 280 279 280 279 279 279 278
288 287 287 286 286 286 286 286 285 285 285 285 285 285 285 285 285 285 285 285 284 284 283 283 283 283 282 282 282 281 280 279 279 279 279 279 278 278 277 276 276 275 275
288 288 287 287 286 286 286 286 286 286 286 285 285 284 284 283 283 282 282 281 282 282 282 282 281 281 280 279 278 278 278 277 276 274 274 273 273 273 272 272 272 272 272
289 289 289 288 287 287 286 285 284 284 283 283 283 283 283 282 282 282 282 281 281 280 279 279 278 278 277 276 275 273 273 272 272 272 272 271 271 271 271 271 271 270 270
288 288 287 287 286 286 285 284 284 283 283 283 282 282 281 281 280 280 280 279 279 278 277 276 275 274 273 273 273 272 272 272 271 271 271 271 271 270 270 270 270 269 269
288 288 288 287 287 286 286 285 284 283 282 282 281 280 280 280 279 278 277 276 275 275 274 273 273 272 272 272 271 271 271 270 270 270 270 269 269 269 269 268 268 268 268
288 288 287 287 286 286 285 284 283 282 281 281 280 279 279 279 278 277 275 275 274 273 273 272 272 271 271 271 270 270 270 269 269 269 269 269 269 269 269 268 268 268 267
288 287 287 286 286 285 284 283 282 281 280 279 279 278 278 277 276 274 274 273 272 272 272 271 271 270 270 270 269 269 269 269 269 269 269 269 268 268 268 267 267 267 266
287 287 286 285 285 284 283 282 281 280 279 279 278 278 276 275 274 273 273 272 272 271 271 270 270 269 269 269 269 269 269 269 268 268 268 267 267 267 266 266 266 266 265
286 285 285 284 284 283 282 281 280 279 279 278 277 275 274 273 272 272 272 272 271 271 270 270 269 269 269 269 269 269 268 268 268 267 267 266 266 266 265 265 265 265 264
285 284 284 283 282 281 280 280 279 279 278 277 275 273 272 272 272 272 272 271 271 270 270 270 269 269 269 269 268 268 267 267 266 266 265 265 265 265 265 265 264 264 264
Wind_Speed
13 12 12 12 13 17 17 15 14 15 15 18 14 20 23 21 15 24 29 29 32 34 37 38 38 38 30 28 30 26 23 25 29 25 22 23 26 22 19 18 17 16 16
10 11 11 11 11 11 12 15 13 11 13 16 13 7 17 20 15 14 20 34 27 34 39 35 38 28 30 28 25 23 22 24 28 28 23 22 20 17 16 15 15 16 16
10 10 10 9 9 9 10 12 12 12 11 15 15 7 10 23 9 11 16 26 27 23 25 23 24 23 17 16 20 20 21 23 26 26 25 22 18 16 16 16 17 17 14
11 9 7 7 7 7 8 8 9 12 12 14 14 8 7 19 18 21 17 15 17 20 14 13 12 12 13 16 15 15 15 15 18 17 16 19 18 18 16 15 15 14 11
12 9 7 5 4 5 7 8 10 9 9 10 8 9 9 14 16 21 25 22 18 18 16 13 12 10 9 7 6 6 5 6 8 10 16 19 19 19 17 15 13 12 10
11 8 5 3 0 4 5 6 9 10 11 9 8 8 12 16 23 27 26 21 21 18 17 15 13 12 11 10 9 9 9 7 9 12 15 16 17 15 14 12 12 13 13
13 11 8 5 6 8 8 8 11 12 14 6 14 18 27 29 29 30 29 26 23 20 20 19 18 17 14 13 12 12 13 13 13 10 12 14 15 13 12 13 13 12 9
18 17 14 11 14 15 18 20 21 22 24 27 29 32 32 29 27 27 24 26 24 22 21 19 18 17 16 12 11 10 13 14 13 12 11 12 11 11 11 10 11 11 9
26 24 23 23 24 25 28 29 30 33 35 34 33 33 31 26 25 27 24 25 25 24 21 18 16 15 16 13 8 10 11 11 11 9 8 8 7 9 9 10 12 12 11
27 26 27 30 33 33 33 33 33 32 31 32 31 28 26 27 24 23 19 18 18 18 17 15 13 12 11 8 5 6 5 6 6 6 7 6 7 7 8 9 9 10 11
22 22 24 26 28 30 30 29 28 28 27 26 25 24 24 23 23 20 17 15 14 13 13 12 11 8 7 4 2 2 3 4 5 5 5 7 8 7 8 10 11 11 12
18 20 22 23 24 24 24 23 21 21 20 20 18 18 19 18 16 13 12 9 8 7 7 7 6 5 3 3 4 4 4 5 7 6 7 8 8 9 11 11 11 12 13
13 14 16 16 16 16 16 16 17 16 15 13 12 13 13 11 10 7 5 3 1 1 1 1 2 3 3 5 5 5 6 8 8 8 8 8 9 9 10 10 10 11 12
11 11 10 10 10 10 10 11 11 11 10 10 10 9 9 8 7 6 5 3 0 2 3 3 3 3 3 4 5 5 5 6 7 7 7 8 8 9 10 10 10 10 11
9 8 8 8 9 10 11 12 11 11 10 9 8 7 7 5 4 3 2 1 0 3 4 5 5 5 6 5 5 6 8 8 8 8 8 9 9 10 9 8 9 9 9
8 8 8 8 8 8 9 10 10 11 11 11 10 8 8 9 8 7 5 3 1 4 7 7 7 7 7 7 7 7 8 8 8 7 7 8 8 8 8 8 8 7 8
8 8 7 6 7 7 7 7 7 9 9 9 8 7 8 9 9 8 6 5 5 6 7 8 9 9 9 9 9 7 7 6 5 5 5 6 6 7 7 8 8 9 9
5 5 5 5 6 6 5 6 7 7 7 8 8 8 7 5 4 3 3 3 3 2 4 6 7 7 6 6 5 5 5 5 5 5 5 6 6 6 6 6 7 7 8
3 3 2 2 2 3 3 4 4 4 4 4 5 5 4 5 5 5 5 4 4 3 2 3 4 4 4 4 5 5 6 6 6 6 6 7 7 7 8 8 8 8 9
2 3 3 3 3 3 3 3 3 4 5 6 6 6 6 6 6 5 4 4 3 3 4 5 5 6 7 7 7 7 7 7 8 8 8 9 9 9 9 10 10 10 11
7 6 7 6 6 5 5 5 6 6 6 6 6 6 6 5 5 4 5 5 5 5 5 6 6 6 7 7 7 7 8 9 9 10 11 11 12 12 13 13 13 13 14
11 11 10 8 8 7 7 8 7 7 8 8 7 8 7 7 7 7 7 8 8 8 8 9 8 8 8 9 10 10 11 12 13 14 15 16 16 17 17 17 17 17 16
15 14 13 12 11 11 10 8 8 8 8 8 8 8 9 9 9 9 9 9 9 9 10 10 10 11 12 12 13 14 15 16 17 19 20 21 21 21 21 22 22 22 22
17 16 16 14 13 12 11 10 10 10 9 9 10 10 10 10 11 11 11 12 12 12 12 12 13 14 15 16 17 19 20 21 22 23 23 25 25 25 26 27 27 28 28
18 18 17 15 14 13 12 11 10 10 10 10 11 11 11 11 11 12 12 13 13 13 14 15 16 17 19 20 21 22 23 24 25 25 26 28 29 30 31 31 31 31 29
19 18 17 16 14 13 12 11 11 11 11 12 12 12 12 12 13 14 15 15 15 15 16 17 19 21 22 23 23 24 25 27 28 28 29 31 32 33 32 31 29 26 24
Wind_Direction
335 307 278 266 264 256 252 257 258 252 256 255 267 240 240 244 237 203 219 228 230 237 239 241 238 240 241 243 249 246 245 248 241 241 236 232 233 234 237 238 238 240 229
335 320 300 277 268 262 255 251 252 261 245 251 261 269 234 235 230 207 219 226 234 236 245 232 227 235 239 233 235 238 245 240 240 239 225 211 213 215 220 219 210 214 210
333 318 310 303 294 282 273 263 252 238 252 249 255 284 235 228 252 198 206 206 203 222 227 212 206 211 221 231 236 240 240 242 243 239 229 215 204 197 192 188 183 186 194
338 326 307 286 277 268 270 271 260 247 249 263 241 286 270 214 235 177 197 183 214 194 190 189 185 203 224 236 234 234 228 228 233 230 220 203 192 180 189 190 183 184 191
348 337 330 318 285 254 243 248 252 248 242 255 243 262 251 199 186 169 169 159 167 162 150 149 148 149 148 157 165 176 184 190 189 190 184 180 178 177 185 185 190 183 177
5 3 357 337 289 206 200 185 210 215 203 198 207 230 184 166 155 150 140 146 131 127 129 123 122 126 133 135 138 138 132 129 151 160 167 169 171 174 178 184 194 177 159
47 47 53 86 113 129 144 159 158 158 148 159 147 154 138 138 137 127 127 125 123 123 119 120 122 120 117 118 115 116 112 114 119 129 152 157 162 164 166 173 170 171 167
64 66 67 81 104 119 121 127 132 127 126 135 130 127 122 118 119 117 120 120 120 119 118 123 124 118 110 108 110 116 119 117 116 124 134 145 147 155 160 174 180 182 199
67 79 88 97 105 112 109 106 108 113 113 111 111 110 108 108 109 107 111 118 120 124 126 125 121 120 113 109 117 120 118 124 128 132 149 148 164 177 181 192 209 209 216
59 68 81 91 96 96 97 97 100 99 99 99 99 100 101 99 97 98 103 113 121 123 126 128 130 131 121 113 117 112 128 134 146 164 162 173 188 197 201 207 221 222 222
63 69 76 77 81 85 86 88 92 99 102 104 101 101 102 104 106 113 117 120 123 128 128 132 131 124 124 132 121 151 179 174 197 212 208 213 215 222 230 232 233 235 239
66 72 73 76 81 86 91 95 92 94 99 102 101 100 100 103 109 115 117 119 123 136 134 128 130 138 144 206 218 228 241 251 249 244 242 243 246 244 243 242 243 246 245
62 68 76 81 85 87 90 93 95 98 102 98 94 93 92 91 97 108 120 121 148 141 141 96 23 330 304 286 275 275 263 259 262 257 257 256 256 258 262 263 263 260 257
55 57 63 69 70 72 75 80 86 89 82 80 77 74 74 73 73 72 69 87 133 304 337 331 337 322 297 288 307 316 293 265 262 275 273 274 277 278 278 279 277 269 263
51 50 51 58 60 59 63 68 65 67 67 67 61 51 50 46 39 31 39 44 340 307 311 313 315 314 316 311 304 293 281 276 280 284 285 289 291 291 287 284 280 278 271
51 55 53 56 57 60 61 57 56 53 44 36 34 32 24 21 18 7 9 347 307 293 296 296 292 293 293 290 285 278 281 285 289 293 294 293 292 290 289 285 282 278 276
48 50 46 44 39 37 37 42 37 31 30 24 25 19 10 5 3 359 351 339 314 277 259 275 289 295 301 300 299 295 286 284 283 283 281 278 278 282 285 288 290 289 290
41 45 47 40 34 28 26 25 17 13 14 9 4 4 7 10 10 11 2 5 350 293 285 282 285 284 276 269 267 272 285 294 298 298 293 290 287 285 287 287 285 285 286
30 23 22 20 20 5 357 349 346 335 332 333 341 348 349 352 354 355 356 0 355 335 299 272 265 267 276 287 295 299 301 301 300 301 303 304 303 304 305 304 302 299 297
298 308 315 308 300 302 308 310 315 324 330 338 345 349 351 350 353 353 346 333 316 300 291 285 283 284 286 288 291 294 296 296 295 294 293 293 295 297 297 296 295 296 297
283 285 287 284 289 302 315 320 322 326 327 332 334 331 329 328 321 311 309 308 304 299 292 287 285 283 283 283 284 285 288 290 292 295 297 299 300 300 299 298 297 296 296
266 268 272 279 286 294 301 306 307 311 313 314 312 308 309 306 306 307 307 307 307 306 307 306 304 301 298 297 298 300 302 303 304 303 303 301 300 300 299 297 296 295 294
263 270 279 283 284 283 284 287 292 292 291 291 293 295 300 301 301 301 301 301 302 303 302 299 297 297 297 299 300 302 303 302 300 299 298 297 297 297 296 295 294 293 292
262 268 271 272 274 276 279 283 285 287 291 294 294 292 292 292 292 295 299 301 301 299 297 296 296 296 298 299 299 299 299 297 295 295 294 293 293 292 291 290 291 291 291
261 263 267 270 274 276 277 280 283 288 292 292 292 293 293 291 291 291 292 294 295 295 295 295 295 295 295 295 295 295 294 292 292 291 290 289 288 289 289 289 289 289 288
258 262 266 270 272 273 275 279 284 287 289 289 288 287 287 289 291 295 296 295 295 295 295 294 294 295 295 296 296 295 294 292 291 290 288 287 286 287 287 286 286 285 285